Moses Lake, WA

6:17 PM PDT on October 16, 2017 (GMT -0700)
Grant County International

Weather History for KMWH - February, 2014

Change the Weather History Date:

Wednesday, February 19, 2014

  Actual Average Record
Temperature  
Mean Temperature 40 °F 36 °F  
Max Temperature 48 °F 45 °F 66 °F (1981)
Min Temperature 32 °F 27 °F 2 °F (1986)
Degree Days  
Heating Degree Days 25 29  
Month to date heating degree days 691 586  
Since 1 July heating degree days 4375 4260  
Cooling Degree Days 0 0  
Month to date cooling degree days 0 0  
Year to date cooling degree days 0 0  
Moisture  
Dew Point 25 °F    
Average Humidity 56    
Maximum Humidity 75    
Minimum Humidity 36    
Precipitation  
Precipitation 0.00 in 0.02 in 0.40 in (1981)
Month to date precipitation 0.66 0.57  
Year to date precipitation 1.06 1.71  
Sea Level Pressure  
Sea Level Pressure 29.98 in    
Wind  
Wind Speed 11 mph (WSW)    
Max Wind Speed 31 mph    
Max Gust Speed 34 mph    
Visibility 10 miles    
Events      
T = Trace of Precipitation, MM = Missing Value Source: NWS Daily Summary

Daily Weather History Graph

Daily Weather History Graph

Search for Another Location

Airport or City:

Trip Planner

Search our weather history database for the weather conditions in past years. The results will help you decide how hot, cold, wet, or windy it might be!

Date:

Astronomy

Feb. 19, 2014 Rise Set
Actual Time 6:55 AM PST 5:27 PM PST
Civil Twilight 6:24 AM PST 5:58 PM PST
Nautical Twilight 5:48 AM PST 6:34 PM PST
Astronomical Twilight 5:13 AM PST 7:09 PM PST
Moon 10:48 PM PST (2/19) 8:43 AM PST (2/19)
Length of Visible Light 11h 34m
Length of Day
10h 32m
Waning Gibbous, 79% of the Moon is Illuminated
Feb 19
Waning Gibbous
Feb 22
Last Quarter
Mar 1
New
Mar 8
First Quarter
Mar 16
Full

Hourly Weather History & Observations

Time (PST) Temp. Windchill Dew Point Humidity Pressure Visibility Wind Dir Wind Speed Gust Speed Precip Events Conditions
12:52 AM 37.0 °F 27.4 °F 25.0 °F 62% 29.78 in 10.0 mi WSW 17.3 mph - N/A   Clear
1:52 AM 36.0 °F 27.5 °F 25.0 °F 64% 29.81 in 10.0 mi WSW 12.7 mph - N/A   Clear
2:52 AM 33.1 °F - 25.0 °F 72% 29.84 in 10.0 mi Calm Calm - N/A   Clear
3:52 AM 34.0 °F 26.0 °F 24.1 °F 67% 29.84 in 10.0 mi SW 10.4 mph - N/A   Clear
4:52 AM 34.0 °F 28.0 °F 23.0 °F 64% 29.86 in 10.0 mi SSW 6.9 mph - N/A   Clear
5:52 AM 34.0 °F 29.8 °F 25.0 °F 70% 29.88 in 10.0 mi SW 4.6 mph - N/A   Clear
6:52 AM 34.0 °F 24.6 °F 26.1 °F 73% 29.88 in 10.0 mi WSW 13.8 mph - N/A   Clear
7:52 AM 36.0 °F 26.0 °F 27.0 °F 70% 29.90 in 10.0 mi WSW 17.3 mph - N/A   Clear
8:52 AM 37.9 °F 27.9 °F 27.0 °F 65% 29.93 in 10.0 mi WSW 19.6 mph - N/A   Mostly Cloudy
9:52 AM 39.0 °F 30.6 °F 28.0 °F 65% 29.96 in 10.0 mi West 15.0 mph - N/A   Clear
10:52 AM 43.0 °F 37.7 °F 28.9 °F 58% 29.99 in 10.0 mi WSW 9.2 mph - N/A   Clear
11:52 AM 46.0 °F 39.3 °F 26.1 °F 46% 29.99 in 10.0 mi West 16.1 mph 21.9 mph N/A   Clear
12:52 PM 48.0 °F - 23.0 °F 37% 30.00 in 10.0 mi WNW 19.6 mph 27.6 mph N/A   Clear
1:52 PM 46.9 °F - 23.0 °F 39% 30.01 in 10.0 mi West 15.0 mph - N/A   Clear
2:52 PM 46.0 °F 41.4 °F 23.0 °F 40% 30.02 in 10.0 mi West 9.2 mph - N/A   Clear
3:52 PM 46.9 °F - 21.9 °F 37% 30.03 in 10.0 mi West 12.7 mph - N/A   Clear
4:52 PM 44.1 °F 37.7 °F 24.1 °F 45% 30.05 in 10.0 mi WSW 12.7 mph - N/A   Clear
5:52 PM 39.0 °F 31.8 °F 26.1 °F 60% 30.07 in 10.0 mi WSW 11.5 mph - N/A   Clear
6:52 PM 36.0 °F 28.5 °F 25.0 °F 64% 30.08 in 10.0 mi SW 10.4 mph - N/A   Clear
7:52 PM 37.0 °F 31.6 °F 25.0 °F 62% 30.09 in 10.0 mi WSW 6.9 mph - N/A   Clear
8:52 PM 35.1 °F - 25.0 °F 67% 30.10 in 10.0 mi Calm Calm - N/A   Clear
9:52 PM 36.0 °F 28.5 °F 26.1 °F 67% 30.11 in 10.0 mi SW 10.4 mph - N/A   Clear
10:52 PM 37.0 °F 31.6 °F 26.1 °F 65% 30.11 in 10.0 mi WSW 6.9 mph - N/A   Partly Cloudy
11:52 PM 37.0 °F 31.6 °F 26.1 °F 65% 30.10 in 10.0 mi SSW 6.9 mph - N/A   Mostly Cloudy